Time,TemperatureF,DewpointF,PressureIn,WindDirection,WindDirectionDegrees,WindSpeedMPH,WindSpeedGustMPH,Humidity,HourlyPrecipIn,Conditions,Clouds,dailyrainin,SoftwareType,DateUTC
2013-04-21 00:03:00,70.0,32.5,-100.00,SSW,200,8.0,16.0,25,0.00,,,0.00,meteohub,2013-04-21 07:03:00,
2013-04-21 00:08:00,69.8,33.4,-100.00,SW,227,10.0,16.0,26,0.00,,,0.00,meteohub,2013-04-21 07:08:00,
2013-04-21 00:13:00,69.8,32.4,-100.00,SW,221,10.0,15.0,25,0.00,,,0.00,meteohub,2013-04-21 07:13:00,
2013-04-21 00:18:00,69.8,33.4,-100.00,SSW,197,13.0,19.0,26,0.00,,,0.00,meteohub,2013-04-21 07:18:00,
2013-04-21 00:23:00,69.6,33.3,-100.00,SW,227,16.0,19.0,26,0.00,,,0.00,meteohub,2013-04-21 07:23:00,
2013-04-21 00:28:00,69.4,34.0,-100.00,SW,227,12.0,22.0,27,0.00,,,0.00,meteohub,2013-04-21 07:28:00,
2013-04-21 00:33:00,69.3,33.8,-100.00,SW,229,14.0,22.0,27,0.00,,,0.00,meteohub,2013-04-21 07:33:00,
2013-04-21 00:38:00,68.9,33.6,-100.00,WSW,239,18.0,22.0,27,0.00,,,0.00,meteohub,2013-04-21 07:38:00,
2013-04-21 00:43:00,68.9,33.6,-100.00,SW,217,12.0,22.0,27,0.00,,,0.00,meteohub,2013-04-21 07:43:00,
2013-04-21 00:48:00,68.7,33.4,-100.00,SW,227,8.0,22.0,27,0.00,,,0.00,meteohub,2013-04-21 07:48:00,
2013-04-21 00:53:00,68.7,33.4,-100.00,SSW,213,12.0,22.0,27,0.00,,,0.00,meteohub,2013-04-21 07:53:00,
2013-04-21 00:58:00,68.5,33.3,-100.00,SW,225,7.0,20.0,27,0.00,,,0.00,meteohub,2013-04-21 07:58:00,
2013-04-21 01:03:00,68.5,33.3,-100.00,SW,228,7.0,13.0,27,0.00,,,0.00,meteohub,2013-04-21 08:03:00,
2013-04-21 01:08:00,68.7,33.4,-100.00,SW,214,4.0,15.0,27,0.00,,,0.00,meteohub,2013-04-21 08:08:00,
2013-04-21 01:13:00,68.5,34.2,-100.00,SW,236,8.0,15.0,28,0.00,,,0.00,meteohub,2013-04-21 08:13:00,
2013-04-21 01:18:00,68.2,33.8,-100.00,SSW,211,7.0,15.0,28,0.00,,,0.00,meteohub,2013-04-21 08:18:00,
2013-04-21 01:23:00,67.8,32.5,-100.00,SW,223,6.0,13.0,27,0.00,,,0.00,meteohub,2013-04-21 08:23:00,
2013-04-21 01:28:00,68.2,32.9,-100.00,SW,223,5.0,12.0,27,0.00,,,0.00,meteohub,2013-04-21 08:28:00,
2013-04-21 01:33:00,68.4,33.1,-100.00,SW,220,7.0,14.0,27,0.00,,,0.00,meteohub,2013-04-21 08:33:00,
2013-04-21 01:38:00,67.8,32.5,-100.00,SW,227,4.0,14.0,27,0.00,,,0.00,meteohub,2013-04-21 08:38:00,
2013-04-21 01:43:00,68.0,32.7,-100.00,SSW,213,5.0,13.0,27,0.00,,,0.00,meteohub,2013-04-21 08:43:00,
2013-04-21 01:48:00,68.2,32.9,-100.00,SW,231,9.0,13.0,27,0.00,,,0.00,meteohub,2013-04-21 08:48:00,
2013-04-21 01:53:00,67.8,32.5,-100.00,SSW,197,7.0,12.0,27,0.00,,,0.00,meteohub,2013-04-21 08:53:00,
2013-04-21 01:58:00,67.8,32.5,-100.00,SW,218,9.0,12.0,27,0.00,,,0.00,meteohub,2013-04-21 08:58:00,
2013-04-21 02:03:00,67.6,33.4,-100.00,SSW,213,7.0,14.0,28,0.00,,,0.00,meteohub,2013-04-21 09:03:00,
2013-04-21 02:08:00,67.5,33.3,-100.00,SSW,198,9.0,14.0,28,0.00,,,0.00,meteohub,2013-04-21 09:08:00,
2013-04-21 02:13:00,67.1,32.9,-100.00,SW,233,8.0,14.0,28,0.00,,,0.00,meteohub,2013-04-21 09:13:00,
2013-04-21 02:18:00,66.9,32.7,-100.00,SW,215,7.0,13.0,28,0.00,,,0.00,meteohub,2013-04-21 09:18:00,
2013-04-21 02:23:00,66.9,32.7,-100.00,SSW,207,6.0,13.0,28,0.00,,,0.00,meteohub,2013-04-21 09:23:00,
2013-04-21 02:28:00,66.9,32.7,-100.00,SSW,209,7.0,13.0,28,0.00,,,0.00,meteohub,2013-04-21 09:28:00,
2013-04-21 02:33:00,66.9,32.7,-100.00,SW,219,9.0,11.0,28,0.00,,,0.00,meteohub,2013-04-21 09:33:00,
2013-04-21 02:38:00,66.6,32.4,-100.00,SW,225,6.0,12.0,28,0.00,,,0.00,meteohub,2013-04-21 09:38:00,
2013-04-21 02:43:00,66.6,32.4,-100.00,SSW,212,7.0,12.0,28,0.00,,,0.00,meteohub,2013-04-21 09:43:00,
2013-04-21 02:48:00,66.6,33.3,-100.00,SW,223,7.0,14.0,29,0.00,,,0.00,meteohub,2013-04-21 09:48:00,
2013-04-21 02:53:00,66.4,32.4,-100.00,SW,221,8.0,14.0,28,0.00,,,0.00,meteohub,2013-04-21 09:53:00,
2013-04-21 02:58:00,66.0,32.0,-100.00,SSW,213,6.0,14.0,28,0.00,,,0.00,meteohub,2013-04-21 09:58:00,
2013-04-21 03:03:00,66.4,32.4,-100.00,SSW,198,7.0,12.0,28,0.00,,,0.00,meteohub,2013-04-21 10:03:00,
2013-04-21 03:08:00,66.4,32.4,-100.00,SW,228,9.0,13.0,28,0.00,,,0.00,meteohub,2013-04-21 10:08:00,
2013-04-21 03:13:00,66.2,32.2,-100.00,SW,230,10.0,13.0,28,0.00,,,0.00,meteohub,2013-04-21 10:13:00,
2013-04-21 03:18:00,66.0,32.0,-100.00,SW,234,9.0,15.0,28,0.00,,,0.00,meteohub,2013-04-21 10:18:00,
2013-04-21 03:23:00,66.0,32.9,-100.00,SW,229,10.0,15.0,29,0.00,,,0.00,meteohub,2013-04-21 10:23:00,
2013-04-21 03:28:00,66.0,32.9,-100.00,SW,225,10.0,15.0,29,0.00,,,0.00,meteohub,2013-04-21 10:28:00,
2013-04-21 03:33:00,65.5,32.4,-100.00,SSW,213,7.0,15.0,29,0.00,,,0.00,meteohub,2013-04-21 10:33:00,
2013-04-21 03:38:00,65.5,32.4,-100.00,SW,221,8.0,15.0,29,0.00,,,0.00,meteohub,2013-04-21 10:38:00,
2013-04-21 03:43:00,65.5,32.4,-100.00,SSW,211,4.0,13.0,29,0.00,,,0.00,meteohub,2013-04-21 10:43:00,
2013-04-21 03:48:00,65.1,32.0,-100.00,SW,229,9.0,12.0,29,0.00,,,0.00,meteohub,2013-04-21 10:48:00,
2013-04-21 03:53:00,65.1,31.3,-100.00,SW,223,6.0,10.0,28,0.00,,,0.00,meteohub,2013-04-21 10:53:00,
2013-04-21 03:58:00,65.1,31.3,-100.00,SSW,209,5.0,10.0,28,0.00,,,0.00,meteohub,2013-04-21 10:58:00,
2013-04-21 04:03:00,65.1,31.3,-100.00,SW,219,1.0,10.0,28,0.00,,,0.00,meteohub,2013-04-21 11:03:00,
2013-04-21 04:08:00,65.1,32.0,-100.00,SW,214,0.0,10.0,29,0.00,,,0.00,meteohub,2013-04-21 11:08:00,
2013-04-21 04:13:00,64.9,32.0,-100.00,SW,224,0.0,10.0,29,0.00,,,0.00,meteohub,2013-04-21 11:13:00,
2013-04-21 04:18:00,64.0,32.0,-100.00,South,181,2.0,6.0,30,0.00,,,0.00,meteohub,2013-04-21 11:18:00,
2013-04-21 04:23:00,63.1,32.0,-100.00,South,174,1.0,6.0,31,0.00,,,0.00,meteohub,2013-04-21 11:23:00,
2013-04-21 04:28:00,63.7,31.6,-100.00,South,175,1.0,4.0,30,0.00,,,0.00,meteohub,2013-04-21 11:28:00,
2013-04-21 04:33:00,64.0,32.7,-100.00,South,175,2.0,4.0,31,0.00,,,0.00,meteohub,2013-04-21 11:33:00,
2013-04-21 04:38:00,64.0,32.7,-100.00,South,182,1.0,4.0,31,0.00,,,0.00,meteohub,2013-04-21 11:38:00,
2013-04-21 04:43:00,64.0,32.7,-100.00,SSW,194,1.0,4.0,31,0.00,,,0.00,meteohub,2013-04-21 11:43:00,
2013-04-21 04:48:00,63.7,32.5,-100.00,SSW,207,2.0,5.0,31,0.00,,,0.00,meteohub,2013-04-21 11:48:00,
2013-04-21 04:53:00,63.3,32.2,-100.00,SSW,210,2.0,6.0,31,0.00,,,0.00,meteohub,2013-04-21 11:53:00,
2013-04-21 04:58:00,63.1,32.0,-100.00,SSW,213,1.0,6.0,31,0.00,,,0.00,meteohub,2013-04-21 11:58:00,
2013-04-21 05:03:00,63.7,32.5,-100.00,SW,217,4.0,7.0,31,0.00,,,0.00,meteohub,2013-04-21 12:03:00,
2013-04-21 05:08:00,63.7,32.5,-100.00,SW,219,4.0,7.0,31,0.00,,,0.00,meteohub,2013-04-21 12:08:00,
2013-04-21 05:13:00,63.1,32.7,-100.00,SW,219,4.0,7.0,32,0.00,,,0.00,meteohub,2013-04-21 12:13:00,
2013-04-21 05:18:00,62.8,32.5,-100.00,SW,221,5.0,6.0,32,0.00,,,0.00,meteohub,2013-04-21 12:18:00,
2013-04-21 05:23:00,62.2,32.7,-100.00,SW,235,6.0,7.0,33,0.00,,,0.00,meteohub,2013-04-21 12:23:00,
2013-04-21 05:28:00,62.2,32.7,-100.00,SW,228,7.0,8.0,33,0.00,,,0.00,meteohub,2013-04-21 12:28:00,
2013-04-21 05:33:00,62.4,32.2,-100.00,SW,229,5.0,8.0,32,0.00,,,0.00,meteohub,2013-04-21 12:33:00,
2013-04-21 05:38:00,62.2,32.0,-100.00,SW,230,5.0,9.0,32,0.00,,,0.00,meteohub,2013-04-21 12:38:00,
2013-04-21 05:43:00,62.1,32.5,-100.00,SW,231,3.0,9.0,33,0.00,,,0.00,meteohub,2013-04-21 12:43:00,
2013-04-21 05:48:00,61.7,32.4,-100.00,SW,231,2.0,8.0,33,0.00,,,0.00,meteohub,2013-04-21 12:48:00,
2013-04-21 05:53:00,61.2,32.5,-100.00,SW,230,3.0,7.0,34,0.00,,,0.00,meteohub,2013-04-21 12:53:00,
2013-04-21 05:58:00,61.5,32.9,-100.00,SW,230,2.0,5.0,34,0.00,,,0.00,meteohub,2013-04-21 12:58:00,
2013-04-21 06:03:00,62.2,32.7,-100.00,SW,230,0.0,5.0,33,0.00,,,0.00,meteohub,2013-04-21 13:03:00,
2013-04-21 06:08:00,61.3,32.7,-100.00,SW,233,1.0,5.0,34,0.00,,,0.00,meteohub,2013-04-21 13:08:00,
2013-04-21 06:13:00,60.4,31.3,-100.00,SW,233,0.0,3.0,33,0.00,,,0.00,meteohub,2013-04-21 13:13:00,
2013-04-21 06:18:00,59.7,32.7,-100.00,SW,234,2.0,2.0,36,0.00,,,0.00,meteohub,2013-04-21 13:18:00,
2013-04-21 06:23:00,60.1,32.4,-100.00,SW,235,4.0,4.0,35,0.00,,,0.00,meteohub,2013-04-21 13:23:00,
2013-04-21 06:28:00,59.7,31.3,-100.00,WSW,247,5.0,5.0,34,0.00,,,0.00,meteohub,2013-04-21 13:28:00,
2013-04-21 06:33:00,59.5,31.1,-100.00,WSW,250,4.0,7.0,34,0.00,,,0.00,meteohub,2013-04-21 13:33:00,
2013-04-21 06:38:00,60.1,31.6,-100.00,WSW,250,3.0,7.0,34,0.00,,,0.00,meteohub,2013-04-21 13:38:00,
2013-04-21 06:43:00,59.7,30.6,-100.00,WSW,250,1.0,7.0,33,0.00,,,0.00,meteohub,2013-04-21 13:43:00,
2013-04-21 06:48:00,59.4,30.9,-100.00,WSW,250,2.0,5.0,34,0.00,,,0.00,meteohub,2013-04-21 13:48:00,
2013-04-21 06:53:00,59.7,31.3,-100.00,WSW,250,0.0,5.0,34,0.00,,,0.00,meteohub,2013-04-21 13:53:00,
2013-04-21 06:58:00,59.7,32.0,-100.00,WSW,250,0.0,3.0,35,0.00,,,0.00,meteohub,2013-04-21 13:58:00,
2013-04-21 07:03:00,60.4,32.0,-100.00,WSW,250,0.0,3.0,34,0.00,,,0.00,meteohub,2013-04-21 14:03:00,
2013-04-21 07:08:00,61.3,31.3,-100.00,WSW,250,0.0,1.0,32,0.00,,,0.00,meteohub,2013-04-21 14:08:00,
2013-04-21 07:13:00,61.5,31.5,-100.00,WSW,250,0.0,1.0,32,0.00,,,0.00,meteohub,2013-04-21 14:13:00,
2013-04-21 07:18:00,61.2,31.8,-100.00,WSW,250,0.0,1.0,33,0.00,,,0.00,meteohub,2013-04-21 14:18:00,
2013-04-21 07:23:00,61.3,32.7,-100.00,WSW,250,0.0,2.0,34,0.00,,,0.00,meteohub,2013-04-21 14:23:00,
2013-04-21 07:28:00,61.3,32.0,-100.00,WSW,250,0.0,2.0,33,0.00,,,0.00,meteohub,2013-04-21 14:28:00,
2013-04-21 07:33:00,62.2,32.7,-100.00,WSW,250,0.0,2.0,33,0.00,,,0.00,meteohub,2013-04-21 14:33:00,
2013-04-21 07:38:00,61.5,32.2,-100.00,WSW,250,0.0,1.0,33,0.00,,,0.00,meteohub,2013-04-21 14:38:00,
2013-04-21 07:43:00,63.1,32.7,-100.00,WSW,250,0.0,1.0,32,0.00,,,0.00,meteohub,2013-04-21 14:43:00,
2013-04-21 07:48:00,63.3,32.2,-100.00,WSW,249,0.0,2.0,31,0.00,,,0.00,meteohub,2013-04-21 14:48:00,
2013-04-21 07:53:00,63.7,32.5,-100.00,WSW,249,0.0,2.0,31,0.00,,,0.00,meteohub,2013-04-21 14:53:00,
2013-04-21 07:58:00,63.7,32.5,-100.00,WSW,249,0.0,2.0,31,0.00,,,0.00,meteohub,2013-04-21 14:58:00,
2013-04-21 08:03:00,64.2,32.2,-100.00,WSW,249,0.0,0.0,30,0.00,,,0.00,meteohub,2013-04-21 15:03:00,
2013-04-21 08:08:00,64.6,32.4,-100.00,WSW,249,0.0,1.0,30,0.00,,,0.00,meteohub,2013-04-21 15:08:00,
2013-04-21 08:13:00,64.8,32.5,-100.00,WSW,249,0.0,1.0,30,0.00,,,0.00,meteohub,2013-04-21 15:13:00,
2013-04-21 08:18:00,64.9,32.0,-100.00,WSW,249,0.0,1.0,29,0.00,,,0.00,meteohub,2013-04-21 15:18:00,
2013-04-21 08:23:00,65.5,32.4,-100.00,WSW,249,0.0,0.0,29,0.00,,,0.00,meteohub,2013-04-21 15:23:00,
2013-04-21 08:28:00,65.7,32.5,-100.00,WSW,250,0.0,2.0,29,0.00,,,0.00,meteohub,2013-04-21 15:28:00,
2013-04-21 08:33:00,66.6,33.3,-100.00,West,272,0.0,3.0,29,0.00,,,0.00,meteohub,2013-04-21 15:33:00,
2013-04-21 08:38:00,67.3,32.2,-100.00,West,272,0.0,3.0,27,0.00,,,0.00,meteohub,2013-04-21 15:38:00,
2013-04-21 08:43:00,68.2,32.9,-100.00,West,272,0.0,3.0,27,0.00,,,0.00,meteohub,2013-04-21 15:43:00,
2013-04-21 08:48:00,68.9,33.6,-100.00,West,273,0.0,2.0,27,0.00,,,0.00,meteohub,2013-04-21 15:48:00,
2013-04-21 08:53:00,69.3,32.9,-100.00,West,273,0.0,2.0,26,0.00,,,0.00,meteohub,2013-04-21 15:53:00,
2013-04-21 08:58:00,69.1,32.7,-100.00,West,273,0.0,2.0,26,0.00,,,0.00,meteohub,2013-04-21 15:58:00,
2013-04-21 09:03:00,70.3,33.8,-100.00,West,273,0.0,2.0,26,0.00,,,0.00,meteohub,2013-04-21 16:03:00,
2013-04-21 09:08:00,70.9,33.3,-100.00,West,273,0.0,2.0,25,0.00,,,0.00,meteohub,2013-04-21 16:08:00,
2013-04-21 09:13:00,71.2,33.6,-100.00,West,273,0.0,2.0,25,0.00,,,0.00,meteohub,2013-04-21 16:13:00,
2013-04-21 09:18:00,72.0,33.3,-100.00,West,273,0.0,2.0,24,0.00,,,0.00,meteohub,2013-04-21 16:18:00,
2013-04-21 09:23:00,72.0,34.2,-100.00,West,273,1.0,2.0,25,0.00,,,0.00,meteohub,2013-04-21 16:23:00,
2013-04-21 09:28:00,72.9,32.9,-100.00,SW,236,2.0,4.0,23,0.00,,,0.00,meteohub,2013-04-21 16:28:00,
2013-04-21 09:33:00,73.6,33.4,-100.00,SW,235,3.0,5.0,23,0.00,,,0.00,meteohub,2013-04-21 16:33:00,
2013-04-21 09:38:00,74.1,32.9,-100.00,SW,224,3.0,5.0,22,0.00,,,0.00,meteohub,2013-04-21 16:38:00,
2013-04-21 09:43:00,73.8,32.5,-100.00,SW,224,2.0,5.0,22,0.00,,,0.00,meteohub,2013-04-21 16:43:00,
2013-04-21 09:48:00,74.7,32.2,-100.00,South,175,1.0,5.0,21,0.00,,,0.00,meteohub,2013-04-21 16:48:00,
2013-04-21 09:53:00,74.7,32.2,-100.00,South,175,2.0,5.0,21,0.00,,,0.00,meteohub,2013-04-21 16:53:00,
2013-04-21 09:58:00,75.7,33.1,-100.00,South,175,1.0,5.0,21,0.00,,,0.00,meteohub,2013-04-21 16:58:00,
2013-04-21 10:03:00,76.1,32.2,-100.00,South,173,1.0,4.0,20,0.00,,,0.00,meteohub,2013-04-21 17:03:00,
2013-04-21 10:08:00,76.5,31.1,-100.00,ESE,119,2.0,4.0,19,0.00,,,0.00,meteohub,2013-04-21 17:08:00,
2013-04-21 10:13:00,77.4,33.1,-100.00,ESE,112,5.0,7.0,20,0.00,,,0.00,meteohub,2013-04-21 17:13:00,
2013-04-21 10:18:00,77.5,32.0,-100.00,East,87,5.0,7.0,19,0.00,,,0.00,meteohub,2013-04-21 17:18:00,
2013-04-21 10:23:00,77.4,31.8,-100.00,East,88,2.0,7.0,19,0.00,,,0.00,meteohub,2013-04-21 17:23:00,
2013-04-21 10:28:00,78.3,31.3,-100.00,East,88,3.0,7.0,18,0.00,,,0.00,meteohub,2013-04-21 17:28:00,
2013-04-21 10:33:00,79.0,28.9,-100.00,East,88,0.0,7.0,16,0.00,,,0.00,meteohub,2013-04-21 17:33:00,
2013-04-21 10:38:00,77.9,29.7,-100.00,East,88,3.0,9.0,17,0.00,,,0.00,meteohub,2013-04-21 17:38:00,
2013-04-21 10:43:00,79.0,28.9,-100.00,ENE,59,2.0,11.0,16,0.00,,,0.00,meteohub,2013-04-21 17:43:00,
2013-04-21 10:48:00,79.2,29.1,-100.00,ENE,64,8.0,11.0,16,0.00,,,0.00,meteohub,2013-04-21 17:48:00,
2013-04-21 10:53:00,80.1,28.2,-100.00,East,82,7.0,11.0,15,0.00,,,0.00,meteohub,2013-04-21 17:53:00,
2013-04-21 10:58:00,80.2,28.4,-100.00,East,87,2.0,10.0,15,0.00,,,0.00,meteohub,2013-04-21 17:58:00,
2013-04-21 11:03:00,81.1,25.7,-100.00,ENE,59,9.0,10.0,13,0.00,,,0.00,meteohub,2013-04-21 18:03:00,
2013-04-21 11:08:00,81.3,25.7,-100.00,East,99,10.0,13.0,13,0.00,,,0.00,meteohub,2013-04-21 18:08:00,
2013-04-21 11:13:00,82.2,24.6,-100.00,East,96,7.0,14.0,12,0.00,,,0.00,meteohub,2013-04-21 18:13:00,
2013-04-21 11:18:00,81.9,26.2,-100.00,ESE,107,3.0,14.0,13,0.00,,,0.00,meteohub,2013-04-21 18:18:00,
2013-04-21 11:23:00,81.9,28.0,-100.00,SE,134,4.0,14.0,14,0.00,,,0.00,meteohub,2013-04-21 18:23:00,
2013-04-21 11:28:00,82.0,26.4,-100.00,NE,42,10.0,11.0,13,0.00,,,0.00,meteohub,2013-04-21 18:28:00,
2013-04-21 11:33:00,82.8,25.0,-100.00,ENE,77,2.0,11.0,12,0.00,,,0.00,meteohub,2013-04-21 18:33:00,
2013-04-21 11:38:00,83.3,27.3,-100.00,East,79,7.0,11.0,13,0.00,,,0.00,meteohub,2013-04-21 18:38:00,
2013-04-21 11:43:00,82.0,26.4,-100.00,East,82,8.0,12.0,13,0.00,,,0.00,meteohub,2013-04-21 18:43:00,
2013-04-21 11:48:00,82.6,24.8,-100.00,East,80,3.0,12.0,12,0.00,,,0.00,meteohub,2013-04-21 18:48:00,
2013-04-21 11:53:00,83.1,27.1,-100.00,ESE,113,2.0,12.0,13,0.00,,,0.00,meteohub,2013-04-21 18:53:00,
2013-04-21 11:58:00,83.7,25.7,-100.00,NE,49,8.0,13.0,12,0.00,,,0.00,meteohub,2013-04-21 18:58:00,
2013-04-21 12:03:00,83.5,25.5,-100.00,East,101,7.0,13.0,12,0.00,,,0.00,meteohub,2013-04-21 19:03:00,
2013-04-21 12:08:00,83.8,25.9,-100.00,SE,129,7.0,12.0,12,0.00,,,0.00,meteohub,2013-04-21 19:08:00,
2013-04-21 12:13:00,83.8,23.7,-100.00,East,92,2.0,12.0,11,0.00,,,0.00,meteohub,2013-04-21 19:13:00,
2013-04-21 12:18:00,82.6,22.8,-100.00,ENE,67,8.0,14.0,11,0.00,,,0.00,meteohub,2013-04-21 19:18:00,
2013-04-21 12:23:00,83.5,23.4,-100.00,East,95,7.0,14.0,11,0.00,,,0.00,meteohub,2013-04-21 19:23:00,
2013-04-21 12:28:00,84.0,21.6,-100.00,ENE,59,8.0,14.0,10,0.00,,,0.00,meteohub,2013-04-21 19:28:00,
2013-04-21 12:33:00,84.9,22.3,-100.00,ESE,105,1.0,11.0,10,0.00,,,0.00,meteohub,2013-04-21 19:33:00,
2013-04-21 12:38:00,83.8,21.4,-100.00,ESE,105,1.0,13.0,10,0.00,,,0.00,meteohub,2013-04-21 19:38:00,
2013-04-21 12:43:00,84.0,21.6,-100.00,East,92,7.0,13.0,10,0.00,,,0.00,meteohub,2013-04-21 19:43:00,
2013-04-21 12:48:00,85.6,22.8,-100.00,East,96,7.0,12.0,10,0.00,,,0.00,meteohub,2013-04-21 19:48:00,
2013-04-21 12:53:00,85.5,20.1,-100.00,East,101,6.0,12.0,9,0.00,,,0.00,meteohub,2013-04-21 19:53:00,
2013-04-21 12:58:00,84.7,19.6,-100.00,East,94,3.0,12.0,9,0.00,,,0.00,meteohub,2013-04-21 19:58:00,
2013-04-21 13:03:00,84.0,21.6,-100.00,ESE,105,10.0,11.0,10,0.00,,,0.00,meteohub,2013-04-21 20:03:00,
2013-04-21 13:08:00,85.5,17.4,-100.00,ESE,109,3.0,12.0,8,0.00,,,0.00,meteohub,2013-04-21 20:08:00,
2013-04-21 13:13:00,83.8,19.0,-100.00,East,97,2.0,13.0,9,0.00,,,0.00,meteohub,2013-04-21 20:13:00,
2013-04-21 13:18:00,83.8,21.4,-100.00,ENE,69,5.0,13.0,10,0.00,,,0.00,meteohub,2013-04-21 20:18:00,
2013-04-21 13:23:00,85.3,20.1,-100.00,East,96,5.0,10.0,9,0.00,,,0.00,meteohub,2013-04-21 20:23:00,
2013-04-21 13:28:00,85.5,20.1,-100.00,East,98,7.0,10.0,9,0.00,,,0.00,meteohub,2013-04-21 20:28:00,
2013-04-21 13:33:00,86.0,17.8,-100.00,ENE,67,4.0,11.0,8,0.00,,,0.00,meteohub,2013-04-21 20:33:00,
2013-04-21 13:38:00,85.3,17.2,-100.00,ENE,67,3.0,11.0,8,0.00,,,0.00,meteohub,2013-04-21 20:38:00,
2013-04-21 13:43:00,84.6,16.9,-100.00,ENE,62,1.0,11.0,8,0.00,,,0.00,meteohub,2013-04-21 20:43:00,
2013-04-21 13:48:00,85.6,20.3,-100.00,ESE,119,8.0,11.0,9,0.00,,,0.00,meteohub,2013-04-21 20:48:00,
2013-04-21 13:53:00,86.7,18.3,-100.00,ESE,119,4.0,9.0,8,0.00,,,0.00,meteohub,2013-04-21 20:53:00,
2013-04-21 13:58:00,86.7,18.3,-100.00,SE,138,1.0,9.0,8,0.00,,,0.00,meteohub,2013-04-21 20:58:00,
2013-04-21 14:03:00,87.3,18.9,-100.00,SE,140,0.0,9.0,8,0.00,,,0.00,meteohub,2013-04-21 21:03:00,
2013-04-21 14:08:00,85.8,20.5,-100.00,SE,144,4.0,7.0,9,0.00,,,0.00,meteohub,2013-04-21 21:08:00,
2013-04-21 14:13:00,85.8,17.8,-100.00,East,79,5.0,7.0,8,0.00,,,0.00,meteohub,2013-04-21 21:13:00,
2013-04-21 14:18:00,86.5,18.3,-100.00,ENE,78,0.0,8.0,8,0.00,,,0.00,meteohub,2013-04-21 21:18:00,
2013-04-21 14:23:00,85.8,17.8,-100.00,North,0,4.0,8.0,8,0.00,,,0.00,meteohub,2013-04-21 21:23:00,
2013-04-21 14:28:00,86.7,18.3,-100.00,NNE,32,3.0,8.0,8,0.00,,,0.00,meteohub,2013-04-21 21:28:00,
2013-04-21 14:33:00,87.1,18.7,-100.00,NNE,26,3.0,8.0,8,0.00,,,0.00,meteohub,2013-04-21 21:33:00,
2013-04-21 14:38:00,87.3,18.9,-100.00,ENE,78,4.0,8.0,8,0.00,,,0.00,meteohub,2013-04-21 21:38:00,
2013-04-21 14:43:00,87.4,18.9,-100.00,East,81,5.0,10.0,8,0.00,,,0.00,meteohub,2013-04-21 21:43:00,
2013-04-21 14:48:00,87.4,18.9,-100.00,East,98,8.0,10.0,8,0.00,,,0.00,meteohub,2013-04-21 21:48:00,
2013-04-21 14:53:00,88.2,19.4,-100.00,ESE,104,4.0,10.0,8,0.00,,,0.00,meteohub,2013-04-21 21:53:00,
2013-04-21 14:58:00,89.1,20.1,-100.00,East,82,8.0,10.0,8,0.00,,,0.00,meteohub,2013-04-21 21:58:00,
2013-04-21 15:03:00,88.0,22.1,-100.00,NNE,26,2.0,11.0,9,0.00,,,0.00,meteohub,2013-04-21 22:03:00,
2013-04-21 15:08:00,88.3,22.3,-100.00,NNE,19,0.0,11.0,9,0.00,,,0.00,meteohub,2013-04-21 22:08:00,
2013-04-21 15:13:00,88.9,27.5,-100.00,WSW,254,4.0,10.0,11,0.00,,,0.00,meteohub,2013-04-21 22:13:00,
2013-04-21 15:18:00,88.9,22.8,-100.00,SSW,211,8.0,8.0,9,0.00,,,0.00,meteohub,2013-04-21 22:18:00,
2013-04-21 15:23:00,88.9,19.9,-100.00,SSW,205,1.0,9.0,8,0.00,,,0.00,meteohub,2013-04-21 22:23:00,
2013-04-21 15:28:00,87.6,19.0,-100.00,SSW,205,0.0,9.0,8,0.00,,,0.00,meteohub,2013-04-21 22:28:00,
2013-04-21 15:33:00,87.1,21.4,-100.00,SSW,209,0.0,9.0,9,0.00,,,0.00,meteohub,2013-04-21 22:33:00,
2013-04-21 15:38:00,88.3,19.6,-100.00,SSW,207,0.0,6.0,8,0.00,,,0.00,meteohub,2013-04-21 22:38:00,
2013-04-21 15:43:00,88.9,19.9,-100.00,SSE,157,4.0,4.0,8,0.00,,,0.00,meteohub,2013-04-21 22:43:00,
2013-04-21 15:48:00,87.6,19.0,-100.00,East,101,1.0,6.0,8,0.00,,,0.00,meteohub,2013-04-21 22:48:00,
2013-04-21 15:53:00,88.7,19.9,-100.00,East,100,1.0,6.0,8,0.00,,,0.00,meteohub,2013-04-21 22:53:00,
2013-04-21 15:58:00,89.8,20.7,-100.00,ESE,104,3.0,6.0,8,0.00,,,0.00,meteohub,2013-04-21 22:58:00,
2013-04-21 16:03:00,88.5,19.8,-100.00,NE,41,4.0,9.0,8,0.00,,,0.00,meteohub,2013-04-21 23:03:00,
2013-04-21 16:08:00,89.4,20.3,-100.00,East,84,6.0,9.0,8,0.00,,,0.00,meteohub,2013-04-21 23:08:00,
2013-04-21 16:13:00,89.4,20.3,-100.00,ENE,69,0.0,13.0,8,0.00,,,0.00,meteohub,2013-04-21 23:13:00,
2013-04-21 16:18:00,90.0,20.8,-100.00,ESE,102,2.0,13.0,8,0.00,,,0.00,meteohub,2013-04-21 23:18:00,
2013-04-21 16:23:00,90.3,21.0,-100.00,ESE,113,9.0,13.0,8,0.00,,,0.00,meteohub,2013-04-21 23:23:00,
2013-04-21 16:28:00,90.7,21.4,-100.00,ESE,120,2.0,13.0,8,0.00,,,0.00,meteohub,2013-04-21 23:28:00,
2013-04-21 16:33:00,90.7,21.4,-100.00,East,96,9.0,13.0,8,0.00,,,0.00,meteohub,2013-04-21 23:33:00,
2013-04-21 16:38:00,90.3,21.0,-100.00,East,95,3.0,11.0,8,0.00,,,0.00,meteohub,2013-04-21 23:38:00,
2013-04-21 16:43:00,90.3,23.9,-100.00,SE,132,8.0,11.0,9,0.00,,,0.00,meteohub,2013-04-21 23:43:00,
2013-04-21 16:48:00,90.3,23.9,-100.00,SSE,165,8.0,15.0,9,0.00,,,0.00,meteohub,2013-04-21 23:48:00,
2013-04-21 16:53:00,90.1,23.7,-100.00,South,179,13.0,15.0,9,0.00,,,0.00,meteohub,2013-04-21 23:53:00,
2013-04-21 16:58:00,90.0,23.5,-100.00,South,180,11.0,17.0,9,0.00,,,0.00,meteohub,2013-04-21 23:58:00,
2013-04-21 17:03:00,90.0,26.1,-100.00,South,191,14.0,17.0,10,0.00,,,0.00,meteohub,2013-04-22 00:03:00,
2013-04-21 17:08:00,89.8,23.4,-100.00,South,181,12.0,17.0,9,0.00,,,0.00,meteohub,2013-04-22 00:08:00,
2013-04-21 17:13:00,89.8,25.9,-100.00,SSW,210,7.0,21.0,10,0.00,,,0.00,meteohub,2013-04-22 00:13:00,
2013-04-21 17:18:00,90.5,26.6,-100.00,SSW,194,10.0,21.0,10,0.00,,,0.00,meteohub,2013-04-22 00:18:00,
2013-04-21 17:23:00,90.1,26.2,-100.00,SSW,198,11.0,21.0,10,0.00,,,0.00,meteohub,2013-04-22 00:23:00,
2013-04-21 17:28:00,90.1,26.2,-100.00,SSW,193,12.0,21.0,10,0.00,,,0.00,meteohub,2013-04-22 00:28:00,
2013-04-21 17:33:00,89.4,23.2,-100.00,South,182,15.0,21.0,9,0.00,,,0.00,meteohub,2013-04-22 00:33:00,
2013-04-21 17:38:00,89.4,23.2,-100.00,SSE,167,14.0,22.0,9,0.00,,,0.00,meteohub,2013-04-22 00:38:00,
2013-04-21 17:43:00,89.6,23.4,-100.00,South,183,9.0,22.0,9,0.00,,,0.00,meteohub,2013-04-22 00:43:00,
2013-04-21 17:48:00,89.4,23.2,-100.00,South,175,13.0,24.0,9,0.00,,,0.00,meteohub,2013-04-22 00:48:00,
2013-04-21 17:53:00,89.2,20.3,-100.00,SW,223,12.0,24.0,8,0.00,,,0.00,meteohub,2013-04-22 00:53:00,
2013-04-21 17:58:00,89.2,20.3,-100.00,SSW,200,10.0,24.0,8,0.00,,,0.00,meteohub,2013-04-22 00:58:00,
2013-04-21 18:03:00,89.2,23.0,-100.00,SW,218,10.0,24.0,9,0.00,,,0.00,meteohub,2013-04-22 01:03:00,
2013-04-21 18:08:00,89.1,25.3,-100.00,WSW,249,10.0,24.0,10,0.00,,,0.00,meteohub,2013-04-22 01:08:00,
2013-04-21 18:13:00,88.9,25.3,-100.00,SSW,196,10.0,24.0,10,0.00,,,0.00,meteohub,2013-04-22 01:13:00,
2013-04-21 18:18:00,88.5,25.0,-100.00,WSW,251,16.0,26.0,10,0.00,,,0.00,meteohub,2013-04-22 01:18:00,
2013-04-21 18:23:00,88.2,24.8,-100.00,SW,235,11.0,26.0,10,0.00,,,0.00,meteohub,2013-04-22 01:23:00,
2013-04-21 18:28:00,87.6,24.3,-100.00,WSW,239,15.0,26.0,10,0.00,,,0.00,meteohub,2013-04-22 01:28:00,
2013-04-21 18:33:00,87.3,26.4,-100.00,WSW,253,16.0,21.0,11,0.00,,,0.00,meteohub,2013-04-22 01:33:00,
2013-04-21 18:38:00,86.9,28.2,-100.00,WSW,257,16.0,21.0,12,0.00,,,0.00,meteohub,2013-04-22 01:38:00,
2013-04-21 18:43:00,86.5,27.9,-100.00,WSW,246,15.0,21.0,12,0.00,,,0.00,meteohub,2013-04-22 01:43:00,
2013-04-21 18:48:00,85.8,27.3,-100.00,WSW,254,12.0,21.0,12,0.00,,,0.00,meteohub,2013-04-22 01:48:00,
2013-04-21 18:53:00,85.3,27.0,-100.00,WSW,248,19.0,24.0,12,0.00,,,0.00,meteohub,2013-04-22 01:53:00,
2013-04-21 18:58:00,84.7,28.4,-100.00,WSW,247,15.0,24.0,13,0.00,,,0.00,meteohub,2013-04-22 01:58:00,
2013-04-21 19:03:00,84.0,27.9,-100.00,West,265,21.0,24.0,13,0.00,,,0.00,meteohub,2013-04-22 02:03:00,
2013-04-21 19:08:00,83.5,29.3,-100.00,WSW,252,16.0,24.0,14,0.00,,,0.00,meteohub,2013-04-22 02:08:00,
2013-04-21 19:13:00,82.9,28.8,-100.00,WSW,254,13.0,26.0,14,0.00,,,0.00,meteohub,2013-04-22 02:13:00,
2013-04-21 19:18:00,82.6,28.6,-100.00,West,259,22.0,26.0,14,0.00,,,0.00,meteohub,2013-04-22 02:18:00,
2013-04-21 19:23:00,82.2,28.2,-100.00,West,263,13.0,26.0,14,0.00,,,0.00,meteohub,2013-04-22 02:23:00,
2013-04-21 19:28:00,81.7,27.9,-100.00,WSW,238,18.0,25.0,14,0.00,,,0.00,meteohub,2013-04-22 02:28:00,
2013-04-21 19:33:00,81.3,27.5,-100.00,WSW,250,9.0,25.0,14,0.00,,,0.00,meteohub,2013-04-22 02:33:00,
2013-04-21 19:38:00,81.0,28.9,-100.00,WSW,245,17.0,24.0,15,0.00,,,0.00,meteohub,2013-04-22 02:38:00,
2013-04-21 19:43:00,80.8,28.8,-100.00,West,270,17.0,22.0,15,0.00,,,0.00,meteohub,2013-04-22 02:43:00,
2013-04-21 19:48:00,80.4,30.2,-100.00,West,261,18.0,25.0,16,0.00,,,0.00,meteohub,2013-04-22 02:48:00,
2013-04-21 19:53:00,79.7,29.5,-100.00,West,260,18.0,25.0,16,0.00,,,0.00,meteohub,2013-04-22 02:53:00,
2013-04-21 19:58:00,79.3,29.3,-100.00,WSW,257,12.0,27.0,16,0.00,,,0.00,meteohub,2013-04-22 02:58:00,
2013-04-21 20:03:00,79.3,29.3,-100.00,WSW,254,15.0,29.0,16,0.00,,,0.00,meteohub,2013-04-22 03:03:00,
2013-04-21 20:08:00,79.2,30.6,-100.00,WSW,254,14.0,29.0,17,0.00,,,0.00,meteohub,2013-04-22 03:08:00,
2013-04-21 20:13:00,79.0,30.4,-100.00,WSW,257,21.0,29.0,17,0.00,,,0.00,meteohub,2013-04-22 03:13:00,
2013-04-21 20:18:00,79.0,30.4,-100.00,WSW,252,18.0,32.0,17,0.00,,,0.00,meteohub,2013-04-22 03:18:00,
2013-04-21 20:23:00,78.6,30.2,-100.00,West,269,15.0,32.0,17,0.00,,,0.00,meteohub,2013-04-22 03:23:00,
2013-04-21 20:28:00,78.4,30.0,-100.00,WSW,248,15.0,32.0,17,0.00,,,0.00,meteohub,2013-04-22 03:28:00,
2013-04-21 20:33:00,78.3,29.8,-100.00,WSW,244,17.0,30.0,17,0.00,,,0.00,meteohub,2013-04-22 03:33:00,
2013-04-21 20:38:00,78.1,29.7,-100.00,West,265,12.0,30.0,17,0.00,,,0.00,meteohub,2013-04-22 03:38:00,
2013-04-21 20:43:00,77.7,30.9,-100.00,SW,222,11.0,30.0,18,0.00,,,0.00,meteohub,2013-04-22 03:43:00,
2013-04-21 20:48:00,77.5,29.3,-100.00,WSW,240,17.0,24.0,17,0.00,,,0.00,meteohub,2013-04-22 03:48:00,
2013-04-21 20:53:00,77.4,30.6,-100.00,West,269,17.0,24.0,18,0.00,,,0.00,meteohub,2013-04-22 03:53:00,
2013-04-21 20:58:00,77.4,30.6,-100.00,SW,219,7.0,24.0,18,0.00,,,0.00,meteohub,2013-04-22 03:58:00,
2013-04-21 21:01:00,77.4,29.1,-100.00,WSW,244,14.0,26.0,17,0.00,,,0.00,meteohub,2013-04-22 04:01:00,
2013-04-21 21:02:00,77.4,29.1,-100.00,SW,228,17.0,26.0,17,0.00,,,0.00,meteohub,2013-04-22 04:02:00,
2013-04-21 21:07:00,76.8,28.8,-100.00,SW,225,7.0,28.0,17,0.00,,,0.00,meteohub,2013-04-22 04:07:00,
2013-04-21 21:12:00,76.5,29.8,-100.00,SW,217,9.0,28.0,18,0.00,,,0.00,meteohub,2013-04-22 04:12:00,
2013-04-21 21:17:00,76.5,29.8,-100.00,SW,225,16.0,25.0,18,0.00,,,0.00,meteohub,2013-04-22 04:17:00,
2013-04-21 21:22:00,76.5,29.8,-100.00,SW,229,10.0,25.0,18,0.00,,,0.00,meteohub,2013-04-22 04:22:00,
2013-04-21 21:27:00,76.5,29.8,-100.00,SW,219,11.0,25.0,18,0.00,,,0.00,meteohub,2013-04-22 04:27:00,
2013-04-21 21:32:00,76.1,29.5,-100.00,SW,225,16.0,26.0,18,0.00,,,0.00,meteohub,2013-04-22 04:32:00,
2013-04-21 21:37:00,75.9,29.3,-100.00,SW,223,11.0,26.0,18,0.00,,,0.00,meteohub,2013-04-22 04:37:00,
2013-04-21 21:42:00,75.9,29.3,-100.00,SW,225,12.0,26.0,18,0.00,,,0.00,meteohub,2013-04-22 04:42:00,
2013-04-21 21:47:00,76.1,29.5,-100.00,SW,217,14.0,26.0,18,0.00,,,0.00,meteohub,2013-04-22 04:47:00,
2013-04-21 21:52:00,75.9,29.3,-100.00,SW,222,15.0,22.0,18,0.00,,,0.00,meteohub,2013-04-22 04:52:00,
2013-04-21 21:57:00,75.9,29.3,-100.00,SW,225,15.0,22.0,18,0.00,,,0.00,meteohub,2013-04-22 04:57:00,
2013-04-21 22:02:00,75.9,29.3,-100.00,SSW,199,15.0,25.0,18,0.00,,,0.00,meteohub,2013-04-22 05:02:00,
2013-04-21 22:07:00,75.7,30.6,-100.00,SW,225,11.0,25.0,19,0.00,,,0.00,meteohub,2013-04-22 05:07:00,
2013-04-21 22:12:00,75.6,30.4,-100.00,SW,215,14.0,25.0,19,0.00,,,0.00,meteohub,2013-04-22 05:12:00,
2013-04-21 22:17:00,75.7,30.6,-100.00,SW,215,9.0,27.0,19,0.00,,,0.00,meteohub,2013-04-22 05:17:00,
2013-04-21 22:22:00,75.7,30.6,-100.00,SSW,202,10.0,27.0,19,0.00,,,0.00,meteohub,2013-04-22 05:22:00,
2013-04-21 22:27:00,75.7,30.6,-100.00,SW,224,18.0,27.0,19,0.00,,,0.00,meteohub,2013-04-22 05:27:00,
2013-04-21 22:32:00,75.6,30.4,-100.00,SW,216,19.0,24.0,19,0.00,,,0.00,meteohub,2013-04-22 05:32:00,
2013-04-21 22:37:00,75.4,30.2,-100.00,SW,216,13.0,25.0,19,0.00,,,0.00,meteohub,2013-04-22 05:37:00,
2013-04-21 22:42:00,75.4,30.2,-100.00,SSW,211,10.0,25.0,19,0.00,,,0.00,meteohub,2013-04-22 05:42:00,
2013-04-21 22:47:00,74.8,29.8,-100.00,WSW,239,15.0,25.0,19,0.00,,,0.00,meteohub,2013-04-22 05:47:00,
2013-04-21 22:52:00,74.7,29.7,-100.00,SW,221,14.0,23.0,19,0.00,,,0.00,meteohub,2013-04-22 05:52:00,
2013-04-21 22:57:00,74.7,30.9,-100.00,SSW,205,14.0,23.0,20,0.00,,,0.00,meteohub,2013-04-22 05:57:00,
2013-04-21 23:02:00,74.7,30.9,-100.00,SW,224,18.0,25.0,20,0.00,,,0.00,meteohub,2013-04-22 06:02:00,
2013-04-21 23:07:00,74.5,30.7,-100.00,SW,229,20.0,27.0,20,0.00,,,0.00,meteohub,2013-04-22 06:07:00,
2013-04-21 23:12:00,74.3,30.6,-100.00,SSW,211,12.0,27.0,20,0.00,,,0.00,meteohub,2013-04-22 06:12:00,
2013-04-21 23:17:00,74.1,30.6,-100.00,SW,233,15.0,27.0,20,0.00,,,0.00,meteohub,2013-04-22 06:17:00,
2013-04-21 23:22:00,73.9,30.4,-100.00,SSW,211,10.0,26.0,20,0.00,,,0.00,meteohub,2013-04-22 06:22:00,
2013-04-21 23:27:00,73.9,29.1,-100.00,SW,222,11.0,24.0,19,0.00,,,0.00,meteohub,2013-04-22 06:27:00,
2013-04-21 23:32:00,73.9,30.4,-100.00,SW,225,9.0,22.0,20,0.00,,,0.00,meteohub,2013-04-22 06:32:00,
2013-04-21 23:37:00,73.8,30.2,-100.00,SW,222,16.0,22.0,20,0.00,,,0.00,meteohub,2013-04-22 06:37:00,
2013-04-21 23:42:00,73.8,30.2,-100.00,WSW,243,6.0,23.0,20,0.00,,,0.00,meteohub,2013-04-22 06:42:00,
2013-04-21 23:47:00,73.8,30.2,-100.00,SW,217,6.0,23.0,20,0.00,,,0.00,meteohub,2013-04-22 06:47:00,
2013-04-21 23:52:00,73.6,30.0,-100.00,SW,226,15.0,23.0,20,0.00,,,0.00,meteohub,2013-04-22 06:52:00,
2013-04-21 23:57:00,73.8,30.2,-100.00,SW,214,16.0,22.0,20,0.00,,,0.00,meteohub,2013-04-22 06:57:00,